When you browse on this site, cookies collect data to enhance your experience and personalize the content and advertising you see.
Visit our Privacy Policy to learn more. By continuing to use the site, you agree to this use of cookies and data.

Hourly Weather Valgus

Today, 25 September, Friday

Time Temperature Precipitation Wind Pressure Humidity
00:00 +13°C° 0 mm 2 mps 747 mmHg 85%
01:00 +12°C° 0 mm 2 mps 747 mmHg 86%
02:00 +12°C° 0 mm 2 mps 747 mmHg 87%
03:00 +12°C° 0 mm 2 mps 748 mmHg 89%
04:00 +12°C° 0 mm 2 mps 748 mmHg 90%
05:00 +10°C° 0 mm 2 mps 748 mmHg 91%
06:00 +10°C° 0 mm 2 mps 748 mmHg 92%
07:00 +12°C° 0 mm 2 mps 748 mmHg 87%
08:00 +13°C° 0 mm 2 mps 748 mmHg 82%
09:00 +15°C° 0 mm 2 mps 748 mmHg 78%
10:00 +16°C° 0 mm 3 mps 748 mmHg 73%
11:00 +18°C° 0 mm 3 mps 748 mmHg 68%
12:00 +19°C° 0 mm 3 mps 748 mmHg 64%
13:00 +19°C° 0 mm 3 mps 748 mmHg 62%
14:00 +20°C° 0 mm 3 mps 748 mmHg 61%
15:00 +20°C° 0 mm 3 mps 748 mmHg 59%
16:00 +19°C° 0 mm 3 mps 748 mmHg 65%
17:00 +18°C° 0 mm 3 mps 748 mmHg 71%
18:00 +16°C° 0 mm 2 mps 747 mmHg 77%
19:00 +16°C° 0 mm 3 mps 748 mmHg 78%
20:00 +14°C° 0 mm 3 mps 748 mmHg 79%
21:00 +13°C° 0 mm 3 mps 748 mmHg 81%
22:00 +13°C° 0 mm 3 mps 748 mmHg 82%
23:00 +12°C° 0 mm 3 mps 748 mmHg 83%

Tomorrow, 26 September, Saturday

Time Temperature Precipitation Wind Pressure Humidity
00:00 +12°C° 0 mm 3 mps 748 mmHg 83%
01:00 +11°C° 0 mm 3 mps 748 mmHg 84%
02:00 +11°C° 0 mm 3 mps 749 mmHg 85%
03:00 +11°C° 0 mm 3 mps 749 mmHg 85%
04:00 +11°C° 0 mm 3 mps 749 mmHg 87%
05:00 +10°C° 0 mm 3 mps 749 mmHg 88%
06:00 +10°C° 0 mm 3 mps 749 mmHg 89%
07:00 +11°C° 0 mm 3 mps 749 mmHg 85%
08:00 +12°C° 0 mm 3 mps 749 mmHg 81%
09:00 +13°C° 0 mm 4 mps 749 mmHg 77%
10:00 +15°C° 0 mm 4 mps 750 mmHg 72%
11:00 +17°C° 0 mm 4 mps 750 mmHg 67%
12:00 +18°C° 0 mm 4 mps 750 mmHg 63%
13:00 +19°C° 0 mm 4 mps 750 mmHg 61%
14:00 +19°C° 0 mm 4 mps 750 mmHg 60%
15:00 +20°C° 0 mm 4 mps 750 mmHg 59%
16:00 +18°C° 0 mm 4 mps 750 mmHg 64%
17:00 +17°C° 0 mm 3 mps 750 mmHg 70%
18:00 +16°C° 0 mm 3 mps 750 mmHg 75%
19:00 +14°C° 0 mm 3 mps 750 mmHg 76%
20:00 +13°C° 0 mm 3 mps 751 mmHg 77%
21:00 +12°C° 0 mm 3 mps 751 mmHg 79%
22:00 +12°C° 0 mm 3 mps 751 mmHg 80%
23:00 +11°C° 0 mm 3 mps 751 mmHg 81%

Day after tomorrow, 27 September, Sunday

Time Temperature Precipitation Wind Pressure Humidity
00:00 +10°C° 0 mm 2 mps 751 mmHg 82%
01:00 +10°C° 0 mm 2 mps 751 mmHg 83%
02:00 +10°C° 0 mm 2 mps 751 mmHg 84%
03:00 +10°C° 0 mm 2 mps 752 mmHg 85%
04:00 +10°C° 0 mm 2 mps 752 mmHg 85%
05:00 +9°C° 0 mm 2 mps 752 mmHg 86%
06:00 +9°C° 0 mm 2 mps 752 mmHg 87%
07:00 +10°C° 0 mm 3 mps 752 mmHg 83%
08:00 +12°C° 0 mm 3 mps 752 mmHg 78%
09:00 +13°C° 0 mm 3 mps 752 mmHg 73%
10:00 +14°C° 0 mm 3 mps 752 mmHg 68%
11:00 +17°C° 0 mm 3 mps 752 mmHg 64%
12:00 +18°C° 0 mm 3 mps 752 mmHg 59%
13:00 +19°C° 0 mm 3 mps 752 mmHg 58%
14:00 +19°C° 0 mm 3 mps 752 mmHg 56%
15:00 +20°C° 0 mm 3 mps 752 mmHg 55%
16:00 +18°C° 0 mm 3 mps 752 mmHg 61%
17:00 +17°C° 0 mm 3 mps 752 mmHg 67%
18:00 +14°C° 0 mm 3 mps 752 mmHg 72%
19:00 +13°C° 0 mm 3 mps 752 mmHg 73%
20:00 +12°C° 0 mm 3 mps 753 mmHg 73%
21:00 +12°C° 0 mm 3 mps 753 mmHg 74%
22:00 +11°C° 0 mm 3 mps 753 mmHg 74%
23:00 +11°C° 0 mm 3 mps 753 mmHg 73%

28 September, Monday

Time Temperature Precipitation Wind Pressure Humidity
00:00 +10°C° 0 mm 3 mps 753 mmHg 73%
01:00 +10°C° 0 mm 3 mps 753 mmHg 74%
02:00 +9°C° 0 mm 3 mps 753 mmHg 76%
03:00 +9°C° 0 mm 3 mps 752 mmHg 77%
04:00 +9°C° 0 mm 3 mps 752 mmHg 78%
05:00 +8°C° 0 mm 3 mps 752 mmHg 79%
06:00 +8°C° 0 mm 3 mps 752 mmHg 80%
07:00 +9°C° 0 mm 3 mps 752 mmHg 77%
08:00 +8°C° 0 mm 4 mps 752 mmHg 73%
09:00 +10°C° 0 mm 4 mps 752 mmHg 70%
10:00 +12°C° 0 mm 4 mps 752 mmHg 65%
11:00 +13°C° 0 mm 4 mps 752 mmHg 59%
12:00 +15°C° 0 mm 4 mps 752 mmHg 53%
13:00 +15°C° 0 mm 4 mps 752 mmHg 53%
14:00 +17°C° 0 mm 4 mps 752 mmHg 52%
15:00 +17°C° 0 mm 4 mps 752 mmHg 51%
16:00 +15°C° 0 mm 4 mps 752 mmHg 58%
17:00 +13°C° 0 mm 4 mps 752 mmHg 65%
18:00 +12°C° 0 mm 3 mps 752 mmHg 72%
19:00 +11°C° 0.1 mm 3 mps 752 mmHg 77%
20:00 +10°C° 0.1 mm 4 mps 752 mmHg 82%
21:00 +10°C° 0.1 mm 4 mps 751 mmHg 87%
22:00 +10°C° 0.1 mm 4 mps 751 mmHg 88%
23:00 +8°C° 0.1 mm 4 mps 751 mmHg 89%

29 September, Tuesday

Time Temperature Precipitation Wind Pressure Humidity
00:00 +8°C° 0.1 mm 4 mps 751 mmHg 90%
01:00 +9°C° 0.1 mm 3 mps 751 mmHg 91%
02:00 +9°C° 0.1 mm 3 mps 751 mmHg 91%
03:00 +9°C° 0.1 mm 3 mps 751 mmHg 91%
04:00 +9°C° 0.1 mm 3 mps 750 mmHg 91%
05:00 +9°C° 0.1 mm 3 mps 750 mmHg 92%
06:00 +9°C° 0.1 mm 2 mps 750 mmHg 92%
07:00 +9°C° 0.2 mm 3 mps 750 mmHg 90%
08:00 +9°C° 0.2 mm 3 mps 750 mmHg 89%
09:00 +9°C° 0.2 mm 3 mps 750 mmHg 88%
10:00 +10°C° 0.1 mm 3 mps 750 mmHg 86%
11:00 +12°C° 0.1 mm 2 mps 750 mmHg 83%
12:00 +12°C° 0.1 mm 2 mps 750 mmHg 81%
13:00 +13°C° 0 mm 2 mps 750 mmHg 80%
14:00 +13°C° 0 mm 2 mps 750 mmHg 78%
15:00 +14°C° 0 mm 2 mps 750 mmHg 77%
16:00 +14°C° 0 mm 2 mps 750 mmHg 80%
17:00 +13°C° 0 mm 2 mps 750 mmHg 82%
18:00 +13°C° 0 mm 1 mps 750 mmHg 85%
19:00 +12°C° 0 mm 1 mps 750 mmHg 87%
20:00 +12°C° 0 mm 2 mps 750 mmHg 89%
21:00 +10°C° 0 mm 2 mps 750 mmHg 91%
22:00 +9°C° 0 mm 2 mps 750 mmHg 91%
23:00 +9°C° 0 mm 2 mps 750 mmHg 91%

30 September, Wednesday

Time Temperature Precipitation Wind Pressure Humidity
00:00 +9°C° 0 mm 1 mps 750 mmHg 91%
01:00 +8°C° 0 mm 2 mps 750 mmHg 90%
02:00 +8°C° 0 mm 2 mps 750 mmHg 89%
03:00 +8°C° 0 mm 2 mps 750 mmHg 88%
04:00 +8°C° 0 mm 2 mps 750 mmHg 86%
05:00 +8°C° 0 mm 2 mps 750 mmHg 85%
06:00 +8°C° 0 mm 2 mps 750 mmHg 83%
07:00 +9°C° 0 mm 2 mps 750 mmHg 81%
08:00 +9°C° 0 mm 2 mps 750 mmHg 79%
09:00 +10°C° 0 mm 3 mps 750 mmHg 76%
10:00 +11°C° 0 mm 3 mps 750 mmHg 73%
11:00 +13°C° 0 mm 3 mps 750 mmHg 70%
12:00 +14°C° 0 mm 3 mps 750 mmHg 66%
13:00 +14°C° 0 mm 3 mps 750 mmHg 63%
14:00 +16°C° 0 mm 3 mps 750 mmHg 59%
15:00 +17°C° 0 mm 3 mps 750 mmHg 56%
16:00 +14°C° 0 mm 3 mps 750 mmHg 60%
17:00 +13°C° 0 mm 3 mps 750 mmHg 64%
18:00 +12°C° 0 mm 3 mps 750 mmHg 68%
19:00 +11°C° 0 mm 3 mps 750 mmHg 69%
20:00 +10°C° 0 mm 3 mps 751 mmHg 70%
21:00 +10°C° 0 mm 2 mps 751 mmHg 72%
22:00 +10°C° 0 mm 2 mps 751 mmHg 73%
23:00 +9°C° 0 mm 2 mps 751 mmHg 74%
Show more